Location: Juzet
(42.9779°N, 0.7597°E)
Time: 02:55:53
(UTC+00:00)

Lacrosse 5 - Pass Details

Date: 14 July 2020
Orbit: 717 x 720 km, 57.0° (Epoch: 02 August)

Event Time Altitude Azimuth Distance (km) Brightness Sun altitude
Rises 03:32:53 0° 301° (WNW) 3,127 5.0 -9.4°
Reaches altitude 10° 03:36:10 10° 323° (NW) 2,207 4.4 -8.9°
Maximum altitude 03:39:20 16° 2° (N) 1,810 4.6 -8.5°
Drops below altitude 10° 03:42:31 10° 41° (NE) 2,208 6.0 -8.0°
Sets 03:45:48 0° 62° (ENE) 3,128 7.2 -7.6°
